Regional Weather Roundup
Issued by NWS

Home | Current Version | Previous Version | Text Only | Print | Product List | Glossary Off
Versions: 1 2 3 4 5 6 7 8 9 10 11 12 13 14 15 16 17 18 19 20 21 22 23 24 25 26 27 28 29 30 31 32 33 34 35 36 37 38 39 40 41 42 43 44 45 46 47 48 49 50

000
ASUS43 KMKX 310521
RWRWI

WISCONSIN REGIONAL WEATHER ROUNDUP
NATIONAL WEATHER SERVICE MILWAUKEE/SULLIVAN WI
1200 AM CDT FRI OCT 31 2014

NOTE: "FAIR" INDICATES FEW OR NO CLOUDS BELOW 12,000 FEET WITH NO
SIGNIFICANT WEATHER AND/OR OBSTRUCTIONS TO VISIBILITY.

WIZ001-002-006>008-014>016-023>028-310600-
NORTHWEST WISCONSIN

CITY           SKY/WX    TMP DP  RH WIND       PRES   REMARKS
SUPERIOR ARPT  MOCLDY    31  19  62 N8G20     30.37R WCI  24
ASHLAND        CLOUDY    32  24  72 N16G29    30.29R WCI  21
HAYWARD        LGT SNOW  29  24  82 N12G21    30.27R WCI  19
SIREN          PTCLDY    30  18  61 N10G20    30.35R WCI  21
CUMBERLAND     CLOUDY    30  19  64 NW21G29   30.28R WCI  17
RICE LAKE      MOCLDY    31  19  61 NW14G22   30.29R WCI  21
CHETEK         PTCLDY    31  20  64 NW13G21   30.26R WCI  21
LADYSMITH      LGT SNOW  31  26  79 NW14G28   30.23R WCI  21
EAU CLAIRE     CLEAR     32  18  56 NW13G22   30.25R WCI  22
MENOMONIE      CLEAR     32  16  51 NW23G33   30.28R WCI  20
NEW RICHMOND   CLEAR     30  15  53 N20G25    30.33R WCI  18
OSCEOLA        CLEAR     31  17  55 N15G22    30.38R WCI  20
$$

WIZ003>005-009-010-017-018-310600-
NORTH CENTRAL WISCONSIN

CITY           SKY/WX    TMP DP  RH WIND       PRES   REMARKS
MANITOWISH WTR LGT SNOW  30  29  97 N10G21    30.12R WCI  21
ARBOR VITAE    SNOW      32  30  94 N21G26    30.10R VSB 1/2 WCI  20
WOODRUFF       SNOW      32  30  94 N21G26    30.10R VSB 1/2 WCI  20
RHINELANDER    LGT SNOW  31  30  96 N9        30.07R FOG     WCI  23
EAGLE RIVER    LGT SNOW  32  31  99 N15       30.06R VSB 3/4 WCI  21
LAND O LAKES   LGT SNOW  32  31  96 N15G23    30.07R VSB 3/4 WCI  21
PHILLIPS       LGT SNOW  29  28  93 N16G24    30.15R WCI  18
TOMAHAWK       CLOUDY    31  28  86 NW13G24   30.09R WCI  21
MEDFORD        CLOUDY    31  26  80 NW16G30   30.13R WCI  20
MERRILL        CLOUDY    33  28  79 NW13G25   30.08S WCI  24
$$

WIZ029-030-035-036-043>047-310600-
CENTRAL WISCONSIN

CITY           SKY/WX    TMP DP  RH WIND       PRES   REMARKS
WAUSAU         CLOUDY    35  27  72 NW13G23   30.08R WCI  26
MOSINEE        CLOUDY    34  30  86 NW17G24   30.09R WCI  23
MARSHFIELD     CLOUDY    34  28  79 NW20G28   30.13R WCI  23
STEVENS POINT  MIX PCPN  35  29  79 NW14G22   30.09R WCI  26
WAUPACA        PTCLDY    41  31  67 NW16G22   30.06R
WAUTOMA        CLOUDY    39  34  82 NW14G21   30.08R WCI  31
WISC RAPIDS    CLOUDY    36  30  79 NW17G28   30.12R WCI  26
CAMP DOUGLAS   CLOUDY    37  27  65 NW26G37   30.14R WCI  26
$$

WIZ011>013-019>022-031-037>040-048>050-310600-
NORTHEAST WISCONSIN

CITY           SKY/WX    TMP DP  RH WIND       PRES   REMARKS
ANTIGO         LGT SNOW  32  31  94 NW13      30.05R WCI  23
SHAWANO        MOCLDY    40  32  71 NW12G18   30.04R WCI  34
OCONTO         CLOUDY    40  31  70 NW9G20    30.00S WCI  34
STURGEON BAY   CLOUDY    41  30  65 NW14G21   29.98S
GREEN BAY      CLOUDY    42  32  67 NW17G29   30.01F
MANITOWOC      CLOUDY    44  33  65 NW16G22   30.00S
APPLETON       CLOUDY    39  30  70 NW9       30.03S WCI  33
CLINTONVILLE   CLOUDY    39  32  75 NW15      30.04R WCI  31
OSHKOSH        MOCLDY    42  33  70 NW12      30.03S
$$

WIZ032>034-041-042-053>061-310600-
SOUTHWEST WISCONSIN

CITY           SKY/WX    TMP DP  RH WIND       PRES   REMARKS
LA CROSSE      CLOUDY    40  24  53 N21G31    30.20R WCI  30
SPARTA         LGT RAIN  36  31  85 NW20G28   30.18R WCI  25
VIROQUA        CLOUDY    39  29  67 N23G31    30.13R WCI  29
BOSCOBEL       CLOUDY    45  30  55 VRB6      30.14S
PRAIRIE DU CHI CLOUDY    44  28  53 NW15G23   30.16R
PLATTEVILLE    CLOUDY    44  34  68 N23G31    30.11S
$$

WIZ056-057-062-063-064-067-068-310600-
SOUTH CENTRAL WISCONSIN

CITY           SKY/WX    TMP DP  RH WIND       PRES   REMARKS
REEDSBURG      CLOUDY    41  31  68 NW8       30.10S
BARABOO/DELLS  CLOUDY    41  30  65 NW13G22   30.09S
LONE ROCK      PTCLDY    47  28  47 NW8       30.12S
MINERAL POINT  CLOUDY    45  30  57 NW21G26   30.10S
MADISON        CLOUDY    44  32  62 NW9       30.07S
MIDDLETON      CLOUDY    45  30  57 NW15G21   30.08S
WATERTOWN      CLOUDY    43  33  68 NW12G17   30.04S
MONROE         CLOUDY    45  37  76 NW12G18   30.06F
JANESVILLE     DRIZZLE   45  37  76 NW7       30.05S
$$

WIZ051-052-058>065-066-070>072-310600-
SOUTHEAST WISCONSIN

CITY           SKY/WX    TMP DP  RH WIND       PRES   REMARKS
MILWAUKEE      LGT RAIN  47  37  68 NW15G22   30.02S
WAUKESHA       CLOUDY    41  34  75 NW14G20   30.03S
MILWAUKEE/TIMM DRIZZLE   43  32  65 NW15G24   30.03S
RACINE         LGT RAIN  46  37  71 W7        30.03F
BURLINGTON     CLOUDY    44  36  74 NW10G16   30.02F
KENOSHA        LGT RAIN  46  37  71 W9        30.02F
FOND DU LAC    CLOUDY    43  32  65 NW12      30.03F
SHEBOYGAN      CLOUDY    44  33  65 NW12      30.00F
WEST BEND      CLOUDY    43  32  65 NW14G21   30.02S
JUNEAU         CLOUDY    42  32  67 NW12      30.05S
$$

LSZ147-162-310600-
LAKE SUPERIOR

STATION/POSITION TIME  TEMP    WIND        PRES    WAVE
                       AIR SEA DIR/SP/G            HT/PER
                 (UTC) (F)     (DEG/KT/KT) (MB)    (FT/S)
W MID LAKE BUOY  0450   35 44  350/ 29/ 33 1023.7R   9/ 7
DEVILS ISLAND    0500   33     360/ 32/ 37 1027.0R
PORT WING        0430   36     360/ 25/ 26 1027.1R
SAXON HARBOR     0501   38      10/ 27     1024.7R
$$

LMZ867-665-643>646-310600-
LAKE MICHIGAN

STATION/POSITION TIME  TEMP    WIND        PRES    WAVE
                       AIR SEA DIR/SP/G            HT/PER
                 (UTC) (F)     (DEG/KT/KT) (MB)    (FT/S)
CHAMBERS ISLAND  0400   43     280/  6/ 13 1015.2
N MID LAKE BUOY  0450   44 51  310/ 17/ 21 1013.8F   3/ 4
NORTHPORT PIER   0400   43     300/ 10/ 17 1014.9S
KEWAUNEE LAKESHO 0500   43     300/ 12/ 16 1014.5F
SHEBOYGAN LAKESH 0500   45 50  300/  9/ 11 1016.6F
PORT WASHINGTON  0440   46     310/  7/ 16 1016.9S
ATWATER BUOY     0500   47     330/ 17/ 23 1017.2F
MILWAUKEE LAKESH 0500   47     310/ 12/ 17   N/A
S MID LAKE BUOY  0450   50 53  280/ 16/ 19 1016.0F   2/ 3
KENOSHA   LAKESH 0500   47     280/  8/ 13 1016.3F
$$

TC  - TEMPERATURE IN CELSIUS
VSB - VISIBILITY IN STATUTE MILES
WCI - WIND CHILL INDEX
HX  - HEAT INDEX




USA.gov is the U.S. government's official web portal to all federal, state and local government web resources and services.